Flag for Philippines Weather past 2 weeks in Makati, Philippines

Now
81 °F

Light rain. More clouds than sun.


Feels Like: 89 °F
Forecast: 79 / 88 °F
Wind: 7 mph from Southwest

Location: National Airport

Current Time: Sep 3, 2014 at 3:19:15 PM

Latest Report: Sep 3, 2014 at 3:00 PM


Visibility: 6 mi

Pressure: 29.71 "Hg

Humidity: 100%

Dew point: 81 °F

Location of MakatiLocation

Historic Weather in Makati — Graph

°F

Makati temperature yesterday

Maximum temperature yesterday: 84 °F (at 11:00 AM)
Minimum temperature yesterday: 77 °F (at 4:00 AM)
Average temperature yesterday: 81 °F

Past Weeks' High & Low Weather Summary

 TemperatureHumidityPressure
High95 °F (Aug 19, 2:00 PM)100% (Aug 21, 2:00 PM)29.89 "Hg (Aug 21, 2:00 PM)
Low70 °F (Aug 21, 5:00 PM)47% (Aug 19, 2:00 PM)29.74 "Hg (Aug 21, 3:00 PM)
Average82 °F87%29.81 "Hg
* Reported Aug 19 2:00 PM — Sep 3 2:00 PM, Makati, Weather by CustomWeather, © 2014

Note: Actual official high and low records may vary slightly from our data, if they occured in-between our weather recording intervals... More about our weather records

Advertising

Makati weather history for previous 24 hours

 ConditionsComfort  
Time TempWeatherWind HumidityBarometerVisibility
2:00 PM
Sep 3
81 °FRain. More clouds than sun.6 mph100%29.74 "Hg4 mi
1:00 PM86 °FScattered clouds.9 mph75%29.74 "HgN/A
12:00 PM88 °FMore clouds than sun.6 mph66%29.77 "HgN/A
11:00 AM86 °FMore clouds than sun.2 mph70%29.83 "HgN/A
10:00 AM82 °FSprinkles. Broken clouds.5 mph79%29.83 "HgN/A
9:00 AM82 °FBroken clouds.5 mph74%29.80 "HgN/A
8:00 AM82 °FBroken clouds.5 mph79%29.80 "HgN/A
7:00 AM77 °FBroken clouds.2 mph100%29.77 "HgN/A
6:00 AM77 °FBroken clouds.3 mph100%29.77 "HgN/A
5:00 AM77 °FPartly cloudy.3 mph94%29.77 "HgN/A
4:00 AM79 °FPartly cloudy.2 mph89%29.80 "HgN/A
3:00 AM81 °FMostly cloudy.2 mph100%29.80 "Hg5 mi
2:00 AM81 °FPartly cloudy.No wind94%29.77 "HgN/A
1:00 AM79 °FPassing clouds.No wind100%29.80 "HgN/A
12:00 AM81 °FPassing clouds.No wind94%29.80 "HgN/A
11:00 PM
Sep 2
81 °FPartly cloudy.No wind94%29.83 "HgN/A
10:00 PM81 °FPartly cloudy.3 mph94%29.83 "HgN/A
9:00 PM81 °FMostly cloudy.3 mph100%29.83 "HgN/A
8:00 PM82 °FPartly cloudy.2 mph94%29.80 "HgN/A
7:00 PM82 °FMostly cloudy.5 mph94%29.80 "HgN/A
6:00 PM82 °FMore clouds than sun.6 mph89%29.77 "HgN/A
5:00 PM84 °FMore clouds than sun.8 mph84%29.77 "HgN/A
4:00 PM84 °FSprinkles. More clouds than sun.7 mph84%29.77 "HgN/A
3:00 PM84 °FMore clouds than sun.8 mph79%29.77 "HgN/A
Weather by CustomWeather, © 2014

See weather overviewHow to use our weather pages